Location: Unspecified
(0.0000°N, 0.0000°E)
Time: 00:07:33
(UTC+01:00)

Coronas F rocket - Visible Passes

Search period start: 03 March 2015 00:00
Search period end: 13 March 2015 00:00
Orbit: 377 x 395 km, 82.5° (Epoch: 02 March)

Date Brightness Start Highest point End Pass type
(mag) Time Alt. Az. Time Alt. Az. Time Alt. Az.
03 Mar 3.9 06:34:25 10° NNE 06:37:03 29° E 06:39:44 10° SSE visible
03 Mar 5.8 19:41:43 10° W 19:42:20 10° W 19:42:43 10° WNW visible
05 Mar 4.0 06:16:34 10° NNE 06:19:08 27° E 06:21:46 10° SSE visible
07 Mar 4.0 05:58:34 10° NNE 06:01:04 25° E 06:03:38 10° SE visible
08 Mar 2.3 06:35:39 10° NNW 06:38:22 31° W 06:41:05 10° SSW visible
09 Mar 4.1 05:40:25 10° NNE 05:42:50 23° E 05:45:20 10° SE visible
10 Mar 2.1 06:17:17 10° NNW 06:20:04 34° W 06:22:51 10° SSW visible
11 Mar 4.2 05:24:13 21° ENE 05:24:27 21° E 05:26:52 10° SE visible
12 Mar 3.5 06:03:30 18° SSW 06:03:30 18° SSW 06:04:26 10° SSW visible
